Tracking 17925 objects as of 22-January-2017
HD Live streaming from Space Station
objects crossing your sky now

METEOSAT 3

Track METEOSAT 3 now!
METEOSAT 3 is classified as:


NORAD ID: 19215
Int'l Code: 1988-051A
Perigee: 36,717.1 km
Apogee: 36,787.8 km
Inclination: 16.1 °
Period: 1,485.4 minutes
Semi major axis: 43123 km
RCS: 4.1367 m2 (large)
Launch date: June 15, 1988
Source: European Space Agency (ESA)
Launch site: FRENCH GUIANA (FRGUI)
Your satellite tracking list
Your tracking list is empty





NASA's NSSDC Master Catalog

Two Line Element Set (TLE):
1 19215U 88051A   17021.03717225 -.00000091  00000-0  00000+0 0  9998
2 19215  16.0592  10.2640 0008202 274.0930 125.0744  0.96946670 90103
Source of the keplerian elements: AFSPC